Weather History for KCNY - October, 2013

Change the Weather History Date:

Tuesday, October 8, 2013

  Actual Average Record
Temperature  
Mean Temperature 59 °F 57 °F  
Max Temperature 76 °F 72 °F 92 °F (1979)
Min Temperature 41 °F 42 °F 23 °F (1955)
Degree Days  
Heating Degree Days 6 8  
Month to date heating degree days 85 53  
Since 1 July heating degree days 136 111  
Cooling Degree Days 0 0  
Month to date cooling degree days 0 4  
Year to date cooling degree days 1643 1288  
Growing Degree Days 10 (Base 50)    
Moisture  
Dew Point 22 °F    
Average Humidity 36    
Maximum Humidity 62    
Minimum Humidity 9    
Precipitation  
Precipitation 0.00 in 0.04 in 0.95 in (1961)
Month to date precipitation 0.04 0.35  
Year to date precipitation 5.00 6.69  
Sea Level Pressure  
Sea Level Pressure 29.76 in    
Wind  
Wind Speed 8 mph (SSW)    
Max Wind Speed 22 mph    
Max Gust Speed 25 mph    
Visibility 10 miles    
Events      
T = Trace of Precipitation, MM = Missing Value Source: NWS Daily Summary

Daily Weather History Graph

Daily Weather History Graph

Search for Another Location

Airport or City:

Trip Planner

Search our weather history database for the weather conditions in past years. The results will help you decide how hot, cold, wet, or windy it might be!

Date:

Astronomy

Oct. 08, 2013 Rise Set
Actual Time 7:21 AM MDT 6:50 PM MDT
Civil Twilight 6:55 AM MDT 7:17 PM MDT
Nautical Twilight 6:24 AM MDT 7:47 PM MDT
Astronomical Twilight 5:53 AM MDT 8:18 PM MDT
Moon 11:17 AM MDT (10/8) 9:32 PM MDT (10/8)
Length of Visible Light 12h 21m
Length of Day
11h 28m
Waxing Crescent, 16% of the Moon is Illuminated
Oct 8
Waxing Crescent
Oct 11
First Quarter
Oct 18
Full
Oct 26
Last Quarter
Nov 3
New

Hourly Weather History & Observations

Time (MDT) Temp. Windchill Dew Point Humidity Pressure Visibility Wind Dir Wind Speed Gust Speed Precip Events Conditions
12:53 AM 46.0 °F - 27.0 °F 47% 29.90 in 10.0 mi Calm Calm - N/A   Clear
1:53 AM 46.9 °F - 30.0 °F 52% 29.90 in 10.0 mi WSW 3.5 mph - N/A   Clear
2:53 AM 48.9 °F - 32.0 °F 52% 29.87 in 10.0 mi Calm Calm - N/A   Clear
3:53 AM 48.0 °F - 32.0 °F 54% 29.85 in 10.0 mi Calm Calm - N/A   Clear
4:53 AM 46.0 °F 44.8 °F 30.9 °F 56% 29.84 in 10.0 mi SSE 3.5 mph - N/A   Clear
5:53 AM 48.9 °F - 34.0 °F 56% 29.83 in 10.0 mi Calm Calm - N/A   Clear
6:53 AM 46.0 °F - 33.1 °F 61% 29.85 in 10.0 mi Calm Calm - N/A   Clear
7:53 AM 45.0 °F 43.5 °F 32.0 °F 60% 29.87 in 10.0 mi NNW 3.5 mph - N/A   Clear
8:53 AM 52.0 °F - 35.1 °F 53% 29.86 in 10.0 mi SE 3.5 mph - N/A   Clear
9:53 AM 62.1 °F - 30.0 °F 30% 29.83 in 10.0 mi ESE 8.1 mph - N/A   Clear
10:53 AM 70.0 °F - 25.0 °F 18% 29.80 in 10.0 mi South 8.1 mph - N/A   Clear
11:53 AM 73.0 °F - 21.0 °F 14% 29.77 in 10.0 mi SSW 16.1 mph 23.0 mph N/A   Clear
12:53 PM 73.9 °F - 21.0 °F 14% 29.75 in 10.0 mi SW 17.3 mph 26.5 mph N/A   Clear
1:53 PM 75.0 °F - 17.1 °F 11% 29.72 in 10.0 mi SSW 18.4 mph 28.8 mph N/A   Clear
2:53 PM 75.0 °F - 14.0 °F 10% 29.69 in 10.0 mi SW 16.1 mph 26.5 mph N/A   Clear
3:53 PM 75.0 °F - 12.0 °F 9% 29.68 in 10.0 mi SSW 17.3 mph 25.3 mph N/A   Clear
4:53 PM 73.9 °F - 12.0 °F 9% 29.67 in 10.0 mi SW 18.4 mph 24.2 mph N/A   Unknown
5:53 PM 72.0 °F - 10.9 °F 10% 29.66 in 10.0 mi SSW 19.6 mph - N/A   Clear
6:53 PM 68.0 °F - 12.0 °F 11% 29.68 in 10.0 mi SSW 8.1 mph - N/A   Clear
7:53 PM 63.0 °F - 14.0 °F 15% 29.70 in 10.0 mi SSW 6.9 mph - N/A   Clear
8:53 PM 61.0 °F - 15.1 °F 17% 29.68 in 10.0 mi SSW 10.4 mph - N/A   Clear
9:53 PM 60.1 °F - 15.1 °F 17% 29.66 in 10.0 mi SSW 9.2 mph - N/A   Clear
10:53 PM 61.0 °F - 15.1 °F 17% 29.63 in 10.0 mi Calm Calm - N/A   Clear
11:53 PM 57.0 °F - 17.1 °F 21% 29.63 in 10.0 mi Calm Calm - N/A   Clear